When you browse on this site, cookies collect data to enhance your experience and personalize the content and advertising you see.
Visit our Privacy Policy to learn more. By continuing to use the site, you agree to this use of cookies and data.
  • En España
  • Lista de países
  • Para 7 días
  • Temperatura del agua
  • El tiempo en el mapa
  • Informadores
  • user-avatar
    Iniciar sesión

    Tiempo cada hora Kampot

    Hoy, 20 Febrero, Jueves

    Tiempo Temperatura Precipitaciones Viento Presión Humedad
    00:00 +27°C° 0 mm 3 mps 760 mmHg 63%
    01:00 +26°C° 0 mm 3 mps 760 mmHg 69%
    02:00 +25°C° 0 mm 3 mps 760 mmHg 73%
    03:00 +25°C° 0 mm 3 mps 760 mmHg 76%
    04:00 +24°C° 0 mm 3 mps 760 mmHg 80%
    05:00 +24°C° 0 mm 3 mps 760 mmHg 79%
    06:00 +25°C° 0 mm 3 mps 760 mmHg 79%
    07:00 +25°C° 0 mm 3 mps 761 mmHg 77%
    08:00 +27°C° 0 mm 3 mps 761 mmHg 68%
    09:00 +29°C° 0 mm 3 mps 762 mmHg 60%
    10:00 +31°C° 0 mm 3 mps 762 mmHg 51%
    11:00 +34°C° 0 mm 3 mps 761 mmHg 44%
    12:00 +35°C° 0 mm 3 mps 760 mmHg 38%
    13:00 +37°C° 0 mm 3 mps 760 mmHg 31%
    14:00 +37°C° 0 mm 3 mps 759 mmHg 30%
    15:00 +37°C° 0 mm 3 mps 758 mmHg 30%
    16:00 +37°C° 0 mm 3 mps 758 mmHg 29%
    17:00 +35°C° 0 mm 2 mps 758 mmHg 34%
    18:00 +34°C° 0 mm 2 mps 758 mmHg 39%
    19:00 +31°C° 0 mm 1 mps 759 mmHg 44%
    20:00 +30°C° 0 mm 2 mps 759 mmHg 46%
    21:00 +30°C° 0 mm 2 mps 760 mmHg 48%
    22:00 +29°C° 0 mm 3 mps 760 mmHg 50%
    23:00 +28°C° 0 mm 3 mps 760 mmHg 57%

    Mañana, 21 Febrero, Viernes

    Tiempo Temperatura Precipitaciones Viento Presión Humedad
    00:00 +27°C° 0 mm 4 mps 761 mmHg 64%
    01:00 +26°C° 0 mm 4 mps 761 mmHg 71%
    02:00 +26°C° 0 mm 4 mps 760 mmHg 73%
    03:00 +25°C° 0 mm 4 mps 760 mmHg 75%
    04:00 +25°C° 0 mm 4 mps 759 mmHg 77%
    05:00 +25°C° 0 mm 4 mps 760 mmHg 76%
    06:00 +25°C° 0 mm 4 mps 761 mmHg 76%
    07:00 +25°C° 0 mm 4 mps 761 mmHg 75%
    08:00 +27°C° 0 mm 4 mps 762 mmHg 66%
    09:00 +29°C° 0 mm 5 mps 762 mmHg 57%
    10:00 +32°C° 0 mm 5 mps 762 mmHg 48%
    11:00 +33°C° 0 mm 5 mps 761 mmHg 43%
    12:00 +35°C° 0 mm 4 mps 761 mmHg 38%
    13:00 +37°C° 0 mm 4 mps 760 mmHg 33%
    20:00 +31°C° 0 mm 2 mps 760 mmHg 48%
    21:00 +30°C° 0 mm 3 mps 761 mmHg 52%
    22:00 +29°C° 0 mm 3 mps 761 mmHg 57%
    23:00 +28°C° 0 mm 3 mps 761 mmHg 60%

    Pasado mañana, 22 Febrero, Sábado

    Tiempo Temperatura Precipitaciones Viento Presión Humedad
    00:00 +27°C° 0 mm 3 mps 761 mmHg 63%
    01:00 +27°C° 0 mm 3 mps 761 mmHg 66%
    02:00 +26°C° 0 mm 3 mps 761 mmHg 67%
    03:00 +26°C° 0 mm 3 mps 761 mmHg 67%
    04:00 +26°C° 0 mm 3 mps 760 mmHg 68%
    05:00 +25°C° 0 mm 4 mps 761 mmHg 66%
    06:00 +25°C° 0 mm 5 mps 761 mmHg 64%
    07:00 +24°C° 0 mm 7 mps 762 mmHg 62%
    08:00 +27°C° 0 mm 7 mps 762 mmHg 56%
    09:00 +29°C° 0 mm 7 mps 762 mmHg 51%
    10:00 +30°C° 0 mm 7 mps 763 mmHg 45%
    11:00 +33°C° 0 mm 6 mps 762 mmHg 41%
    12:00 +35°C° 0 mm 5 mps 761 mmHg 36%
    13:00 +37°C° 0 mm 4 mps 760 mmHg 32%
    14:00 +37°C° 0 mm 4 mps 759 mmHg 31%
    15:00 +37°C° 0 mm 4 mps 758 mmHg 29%
    16:00 +38°C° 0 mm 3 mps 757 mmHg 28%
    17:00 +36°C° 0 mm 2 mps 758 mmHg 32%
    18:00 +33°C° 0 mm 1 mps 758 mmHg 36%
    19:00 +31°C° 0 mm 1 mps 759 mmHg 40%
    20:00 +30°C° 0 mm 2 mps 759 mmHg 45%
    21:00 +29°C° 0 mm 4 mps 760 mmHg 51%
    22:00 +28°C° 0 mm 5 mps 760 mmHg 56%
    23:00 +27°C° 0 mm 5 mps 761 mmHg 60%

    23 Febrero, Domingo

    Tiempo Temperatura Precipitaciones Viento Presión Humedad
    00:00 +27°C° 0 mm 5 mps 761 mmHg 63%
    01:00 +26°C° 0 mm 4 mps 761 mmHg 66%
    02:00 +26°C° 0 mm 4 mps 760 mmHg 68%
    03:00 +25°C° 0 mm 4 mps 760 mmHg 70%
    04:00 +25°C° 0 mm 4 mps 760 mmHg 72%
    05:00 +25°C° 0 mm 5 mps 760 mmHg 68%
    06:00 +24°C° 0 mm 6 mps 761 mmHg 64%
    07:00 +24°C° 0 mm 7 mps 761 mmHg 60%
    08:00 +26°C° 0 mm 6 mps 761 mmHg 54%
    09:00 +28°C° 0 mm 6 mps 762 mmHg 47%
    10:00 +30°C° 0 mm 6 mps 762 mmHg 41%
    11:00 +33°C° 0 mm 5 mps 761 mmHg 38%
    12:00 +34°C° 0 mm 4 mps 760 mmHg 34%
    13:00 +36°C° 0 mm 4 mps 759 mmHg 31%
    14:00 +36°C° 0 mm 3 mps 759 mmHg 30%
    15:00 +37°C° 0 mm 3 mps 758 mmHg 30%
    16:00 +37°C° 0 mm 3 mps 757 mmHg 29%
    17:00 +35°C° 0 mm 2 mps 757 mmHg 34%
    18:00 +32°C° 0 mm 2 mps 758 mmHg 38%
    19:00 +30°C° 0 mm 1 mps 758 mmHg 42%
    20:00 +30°C° 0 mm 2 mps 758 mmHg 46%
    21:00 +30°C° 0 mm 2 mps 759 mmHg 49%
    22:00 +29°C° 0 mm 3 mps 760 mmHg 52%
    23:00 +28°C° 0 mm 3 mps 759 mmHg 58%

    24 Febrero, Lunes

    Tiempo Temperatura Precipitaciones Viento Presión Humedad
    00:00 +27°C° 0 mm 4 mps 759 mmHg 65%
    01:00 +27°C° 0 mm 4 mps 759 mmHg 71%
    02:00 +26°C° 0 mm 3 mps 759 mmHg 72%
    03:00 +26°C° 0 mm 3 mps 759 mmHg 73%
    04:00 +25°C° 0 mm 3 mps 758 mmHg 73%
    05:00 +25°C° 0 mm 3 mps 759 mmHg 72%
    06:00 +26°C° 0 mm 3 mps 759 mmHg 70%
    07:00 +26°C° 0 mm 3 mps 759 mmHg 69%
    08:00 +28°C° 0 mm 3 mps 760 mmHg 61%
    09:00 +30°C° 0 mm 3 mps 760 mmHg 53%
    10:00 +32°C° 0 mm 2 mps 760 mmHg 44%
    11:00 +34°C° 0 mm 2 mps 759 mmHg 41%
    12:00 +36°C° 0 mm 2 mps 758 mmHg 37%
    13:00 +37°C° 0 mm 2 mps 757 mmHg 33%
    14:00 +37°C° 0 mm 2 mps 757 mmHg 32%
    15:00 +37°C° 0 mm 3 mps 756 mmHg 32%
    16:00 +37°C° 0 mm 3 mps 756 mmHg 32%
    17:00 +35°C° 0 mm 3 mps 756 mmHg 42%
    18:00 +31°C° 0 mm 3 mps 757 mmHg 53%
    19:00 +28°C° 0 mm 3 mps 757 mmHg 63%
    20:00 +28°C° 0 mm 3 mps 758 mmHg 64%
    21:00 +28°C° 0 mm 2 mps 758 mmHg 65%
    22:00 +28°C° 0 mm 2 mps 759 mmHg 66%
    23:00 +28°C° 0 mm 2 mps 759 mmHg 68%

    25 Febrero, Martes

    Tiempo Temperatura Precipitaciones Viento Presión Humedad
    00:00 +27°C° 0 mm 3 mps 758 mmHg 70%
    01:00 +27°C° 0 mm 3 mps 758 mmHg 72%
    02:00 +26°C° 0 mm 3 mps 758 mmHg 74%
    03:00 +26°C° 0 mm 3 mps 758 mmHg 76%
    04:00 +26°C° 0 mm 3 mps 758 mmHg 78%
    05:00 +26°C° 0 mm 3 mps 758 mmHg 78%
    06:00 +26°C° 0 mm 3 mps 758 mmHg 77%
    07:00 +26°C° 0 mm 3 mps 758 mmHg 77%
    08:00 +28°C° 0 mm 3 mps 759 mmHg 68%
    09:00 +30°C° 0 mm 3 mps 759 mmHg 58%
    10:00 +33°C° 0 mm 4 mps 759 mmHg 49%
    11:00 +35°C° 0 mm 4 mps 758 mmHg 45%
    12:00 +36°C° 0 mm 3 mps 758 mmHg 40%
    13:00 +37°C° 0 mm 3 mps 757 mmHg 35%
    14:00 +37°C° 0 mm 3 mps 756 mmHg 37%
    15:00 +36°C° 0 mm 2 mps 756 mmHg 39%
    16:00 +36°C° 0 mm 2 mps 755 mmHg 41%
    17:00 +34°C° 0 mm 3 mps 756 mmHg 49%
    18:00 +33°C° 0 mm 3 mps 756 mmHg 57%
    19:00 +30°C° 0 mm 4 mps 757 mmHg 65%
    20:00 +30°C° 0.1 mm 4 mps 757 mmHg 68%
    21:00 +29°C° 0.1 mm 4 mps 758 mmHg 72%
    22:00 +29°C° 0.1 mm 4 mps 758 mmHg 76%
    23:00 +29°C° 0.1 mm 3 mps 758 mmHg 76%
    Mostrar más